Location: Waco, TX
(31.5480°N, 97.1670°W)
Time: 08:15:26
(UTC-05:00)

ISS - Pass Details

Date: 17 October 2019
Orbit: 411 x 421 km, 51.6° (Epoch: 18 October)

Event Time Altitude Azimuth Distance (km) Brightness Sun altitude
Rises 08:19:43 0° 193° (SSW) 2,347 0.1 8.8°
Reaches altitude 10° 08:22:11 10° 175° (S) 1,487 -0.6 9.3°
Maximum altitude 08:24:39 19° 127° (SE) 1,058 -0.1 9.8°
Drops below altitude 10° 08:27:06 10° 80° (E) 1,490 0.4 10.3°
Sets 08:29:35 0° 62° (ENE) 2,355 0.8 10.8°
